| time (UTC) | temp F | wind direction | speed MPH | gust MPH | rain 1hr in | rain 24hr in | rain mn in | humidity % | barometer mb |
| 20260507192108 | 68 | 258 | 9.0 | 15.0 | 0.00 | 0.00 | 0.00 | 38 | 1012.9 |
| 20260507191047 | 68 | 249 | 10.0 | 15.0 | 0.00 | 0.00 | 0.00 | 36 | 1013.0 |
| 20260507190111 | 67 | 267 | 11.0 | 16.0 | 0.00 | 0.00 | 0.00 | 37 | 1012.9 |
| 20260507185057 | 66 | 272 | 9.0 | 16.0 | 0.00 | 0.00 | 0.00 | 36 | 1012.8 |
| 20260507184115 | 66 | 289 | 8.0 | 14.0 | 0.00 | 0.00 | 0.00 | 38 | 1013.0 |
| 20260507181943 | 65 | 277 | 8.0 | 15.0 | 0.00 | 0.00 | 0.00 | 37 | 1013.4 |
| 20260507180956 | 65 | 254 | 8.0 | 15.0 | 0.00 | 0.00 | 0.00 | 43 | 1013.4 |
| 20260507175946 | 65 | 246 | 7.0 | 14.0 | 0.00 | 0.00 | 0.00 | 42 | 1013.2 |
| 20260507174946 | 63 | 224 | 9.0 | 14.0 | 0.00 | 0.00 | 0.00 | 49 | 1013.4 |
| 20260507173925 | 63 | 271 | 7.0 | 14.0 | 0.00 | 0.00 | 0.00 | 47 | 1013.4 |
| 20260507172851 | 62 | 247 | 8.0 | 14.0 | 0.00 | 0.00 | 0.00 | 49 | 1013.7 |
| 20260507171821 | 62 | 261 | 7.0 | 13.0 | 0.00 | 0.00 | 0.00 | 53 | 1013.6 |
| 20260507170757 | 61 | 249 | 5.0 | 11.0 | 0.00 | 0.00 | 0.00 | 55 | 1013.6 |
| 20260507165738 | 60 | 246 | 5.0 | 11.0 | 0.00 | 0.00 | 0.00 | 59 | 1013.5 |
| 20260507164715 | 60 | 221 | 5.0 | 10.0 | 0.00 | 0.00 | 0.00 | 59 | 1013.5 |
| 20260507163704 | 59 | 228 | 6.0 | 10.0 | 0.00 | 0.00 | 0.00 | 61 | 1013.5 |
| 20260507162729 | 59 | 238 | 5.0 | 10.0 | 0.00 | 0.00 | 0.00 | 63 | 1013.6 |
| 20260507161707 | 59 | 250 | 6.0 | 11.0 | 0.00 | 0.00 | 0.00 | 62 | 1013.7 |
| 20260507160641 | 58 | 265 | 7.0 | 13.0 | 0.00 | 0.00 | 0.00 | 64 | 1013.6 |
| 20260507155647 | 58 | 269 | 7.0 | 13.0 | 0.00 | 0.00 | 0.00 | 65 | 1013.6 |
| 20260507154614 | 58 | 248 | 6.0 | 11.0 | 0.00 | 0.00 | 0.00 | 67 | 1013.7 |
| 20260507153545 | 57 | 246 | 7.0 | 12.0 | 0.00 | 0.00 | 0.00 | 69 | 1013.9 |
| 20260507152517 | 56 | 225 | 8.0 | 12.0 | 0.00 | 0.00 | 0.00 | 70 | 1013.8 |
| 20260507151536 | 55 | 247 | 7.0 | 10.0 | 0.00 | 0.00 | 0.00 | 71 | 1014.1 |
| 20260507150507 | 55 | 232 | 8.0 | 13.0 | 0.00 | 0.00 | 0.00 | 73 | 1014.1 |
| 20260507145505 | 54 | 238 | 9.0 | 15.0 | 0.00 | 0.00 | 0.00 | 76 | 1013.7 |
| 20260507144448 | 53 | 244 | 10.0 | 15.0 | 0.00 | 0.00 | 0.00 | 79 | 1013.8 |
| 20260507143450 | 52 | 232 | 9.0 | 14.0 | 0.00 | 0.00 | 0.00 | 82 | 1013.9 |
| 20260507141322 | 48 | 220 | 3.0 | 5.0 | 0.00 | 0.00 | 0.00 | 90 | 1014.2 |
| 20260507140329 | 47 | 217 | 0.0 | 4.0 | 0.00 | 0.00 | 0.00 | 89 | 1014.5 |
| 20260507135350 | 46 | 225 | 0.0 | 0.0 | 0.00 | 0.00 | 0.00 | 89 | 1014.2 |
| 20260507134413 | 45 | 225 | 0.0 | 0.0 | 0.00 | 0.00 | 0.00 | 90 | 1014.5 |
| 20260507133427 | 43 | 225 | 0.0 | 0.0 | 0.00 | 0.00 | 0.00 | 89 | 1014.7 |
| 20260507132403 | 43 | 216 | 0.0 | 0.0 | 0.00 | 0.00 | 0.00 | 88 | 1014.6 |
| 20260507131354 | 43 | 216 | 0.0 | 4.0 | 0.00 | 0.00 | 0.00 | 89 | 1014.6 |
| 20260507130413 | 43 | 305 | 0.0 | 4.0 | 0.00 | 0.00 | 0.00 | 86 | 1014.5 |
| 20260507125354 | 44 | 182 | 2.0 | 3.0 | 0.00 | 0.00 | 0.00 | 88 | 1014.1 |
| 20260507124406 | 44 | 175 | 2.0 | 3.0 | 0.00 | 0.00 | 0.00 | 88 | 1014.1 |
| 20260507123346 | 44 | 182 | 2.0 | 3.0 | 0.00 | 0.00 | 0.00 | 88 | 1014.1 |
| 20260507122359 | 44 | 171 | 2.0 | 4.0 | 0.00 | 0.00 | 0.00 | 87 | 1014.0 |
| 20260507121351 | 45 | 170 | 2.0 | 4.0 | 0.00 | 0.00 | 0.00 | 86 | 1014.0 |
| 20260507120406 | 44 | 161 | 1.0 | 2.0 | 0.00 | 0.00 | 0.00 | 88 | 1014.1 |
| 20260507115412 | 44 | 163 | 1.0 | 2.0 | 0.00 | 0.00 | 0.00 | 85 | 1013.8 |
| 20260507114426 | 46 | 200 | 0.0 | 2.0 | 0.00 | 0.00 | 0.00 | 84 | 1013.5 |
| 20260507112337 | 46 | 172 | 1.0 | 3.0 | 0.00 | 0.00 | 0.00 | 86 | 1013.6 |
| 20260507111329 | 46 | 176 | 2.0 | 4.0 | 0.00 | 0.00 | 0.00 | 84 | 1013.4 |
| 20260507110320 | 47 | 177 | 2.0 | 5.0 | 0.00 | 0.00 | 0.00 | 83 | 1013.5 |
| 20260507103100 | 49 | 198 | 5.0 | 8.0 | 0.00 | 0.00 | 0.00 | 80 | 1012.7 |
| 20260507102116 | 50 | 199 | 4.0 | 6.0 | 0.00 | 0.00 | 0.00 | 79 | 1012.8 |
| 20260507100013 | 51 | 211 | 5.0 | 9.0 | 0.00 | 0.00 | 0.00 | 77 | 1012.6 |
| 20260507094955 | 52 | 213 | 6.0 | 9.0 | 0.00 | 0.00 | 0.00 | 76 | 1012.5 |
| 20260507092826 | 52 | 200 | 5.0 | 11.0 | 0.00 | 0.00 | 0.00 | 76 | 1012.4 |
| 20260507091802 | 52 | 202 | 5.0 | 11.0 | 0.00 | 0.00 | 0.00 | 77 | 1012.5 |
| 20260507090825 | 52 | 207 | 5.0 | 8.0 | 0.00 | 0.00 | 0.00 | 77 | 1012.5 |
| 20260507085803 | 52 | 208 | 5.0 | 8.0 | 0.00 | 0.00 | 0.00 | 77 | 1012.7 |
| 20260507083621 | 52 | 225 | 5.0 | 8.0 | 0.00 | 0.00 | 0.00 | 77 | 1012.7 |
| 20260507081515 | 52 | 210 | 4.0 | 7.0 | 0.00 | 0.00 | 0.00 | 78 | 1012.6 |
| 20260507080531 | 51 | 192 | 3.0 | 5.0 | 0.00 | 0.00 | 0.00 | 79 | 1012.9 |
| 20260507075525 | 52 | 227 | 3.0 | 5.0 | 0.00 | 0.00 | 0.00 | 79 | 1013.1 |
| 20260507073312 | 52 | 221 | 5.0 | 8.0 | 0.00 | 0.00 | 0.00 | 77 | 1013.0 |
| 20260507072306 | 52 | 205 | 4.0 | 6.0 | 0.00 | 0.00 | 0.00 | 76 | 1012.8 |
| 20260507071312 | 53 | 209 | 4.0 | 8.0 | 0.00 | 0.00 | 0.00 | 75 | 1012.8 |
| 20260507070243 | 54 | 209 | 3.0 | 9.0 | 0.00 | 0.00 | 0.00 | 73 | 1012.8 |
| 20260507065305 | 54 | 227 | 2.0 | 9.0 | 0.00 | 0.00 | 0.00 | 72 | 1013.2 |
| 20260507064245 | 54 | 244 | 4.0 | 8.0 | 0.00 | 0.00 | 0.00 | 72 | 1013.2 |
| 20260507063235 | 54 | 245 | 4.0 | 8.0 | 0.00 | 0.00 | 0.00 | 70 | 1013.1 |
| 20260507062221 | 54 | 269 | 3.0 | 5.0 | 0.00 | 0.00 | 0.00 | 68 | 1013.1 |
| 20260507061220 | 56 | 264 | 1.0 | 3.0 | 0.00 | 0.00 | 0.00 | 62 | 1013.1 |
| 20260507060213 | 57 | 247 | 0.0 | 5.0 | 0.00 | 0.00 | 0.00 | 58 | 1013.2 |
| 20260507055211 | 58 | 268 | 3.0 | 9.0 | 0.00 | 0.00 | 0.00 | 55 | 1013.2 |
| 20260507054139 | 58 | 246 | 4.0 | 11.0 | 0.00 | 0.00 | 0.00 | 54 | 1013.4 |
| 20260507051951 | 60 | 321 | 7.0 | 13.0 | 0.00 | 0.00 | 0.00 | 50 | 1013.2 |
| 20260507045833 | 60 | 286 | 8.0 | 15.0 | 0.00 | 0.00 | 0.00 | 51 | 1013.5 |
| 20260507044835 | 60 | 316 | 9.0 | 15.0 | 0.00 | 0.00 | 0.00 | 51 | 1013.5 |
| 20260507042754 | 60 | 264 | 6.0 | 17.0 | 0.00 | 0.00 | 0.00 | 52 | 1013.6 |
| 20260507041734 | 60 | 266 | 9.0 | 17.0 | 0.00 | 0.00 | 0.00 | 51 | 1013.6 |
| 20260507040703 | 60 | 268 | 5.0 | 13.0 | 0.00 | 0.00 | 0.00 | 53 | 1013.6 |
| 20260507035659 | 60 | 249 | 4.0 | 8.0 | 0.00 | 0.00 | 0.00 | 54 | 1013.8 |
| 20260507034711 | 60 | 272 | 5.0 | 10.0 | 0.00 | 0.00 | 0.00 | 57 | 1013.6 |
| 20260507032627 | 61 | 302 | 7.0 | 11.0 | 0.00 | 0.00 | 0.00 | 55 | 1013.5 |
| 20260507031603 | 61 | 302 | 7.0 | 11.0 | 0.00 | 0.00 | 0.00 | 54 | 1013.5 |
| 20260507030628 | 62 | 263 | 6.0 | 11.0 | 0.00 | 0.00 | 0.00 | 54 | 1013.3 |
| 20260507025652 | 62 | 302 | 7.0 | 14.0 | 0.00 | 0.00 | 0.00 | 52 | 1013.5 |
| 20260507024655 | 63 | 313 | 8.0 | 17.0 | 0.00 | 0.00 | 0.00 | 52 | 1013.3 |
| 20260507023654 | 64 | 311 | 11.0 | 19.0 | 0.00 | 0.00 | 0.00 | 49 | 1013.0 |
| 20260507022625 | 64 | 312 | 12.0 | 19.0 | 0.00 | 0.00 | 0.00 | 48 | 1012.9 |
| 20260507021618 | 65 | 313 | 13.0 | 19.0 | 0.00 | 0.00 | 0.00 | 45 | 1012.8 |
| 20260507020620 | 65 | 306 | 11.0 | 22.0 | 0.00 | 0.00 | 0.00 | 45 | 1012.7 |
| 20260507015546 | 66 | 319 | 12.0 | 22.0 | 0.00 | 0.00 | 0.00 | 44 | 1013.3 |
| 20260507014547 | 66 | 300 | 12.0 | 17.0 | 0.00 | 0.00 | 0.00 | 43 | 1013.3 |
| 20260507013550 | 67 | 301 | 11.0 | 20.0 | 0.00 | 0.00 | 0.00 | 43 | 1013.1 |
| 20260507011407 | 67 | 310 | 15.0 | 21.0 | 0.00 | 0.00 | 0.00 | 42 | 1012.9 |
| 20260507010412 | 68 | 300 | 13.0 | 23.0 | 0.00 | 0.00 | 0.00 | 43 | 1012.9 |
| 20260507004304 | 68 | 302 | 15.0 | 23.0 | 0.00 | 0.00 | 0.00 | 43 | 1013.2 |
| 20260507003302 | 69 | 286 | 14.0 | 25.0 | 0.00 | 0.00 | 0.00 | 43 | 1012.8 |
| 20260507001234 | 71 | 294 | 16.0 | 23.0 | 0.00 | 0.00 | 0.00 | 38 | 1012.6 |
| 20260507000214 | 72 | 294 | 15.0 | 22.0 | 0.00 | 0.00 | 0.00 | 37 | 1012.5 |
| 20260506235153 | 72 | 306 | 14.0 | 21.0 | 0.00 | 0.00 | 0.00 | 39 | 1012.3 |
| 20260506234147 | 72 | 309 | 12.0 | 21.0 | 0.00 | 0.00 | 0.00 | 38 | 1012.4 |
| 20260506233128 | 73 | 327 | 12.0 | 21.0 | 0.00 | 0.00 | 0.00 | 40 | 1012.4 |
| 20260506232117 | 72 | 301 | 14.0 | 21.0 | 0.00 | 0.00 | 0.00 | 38 | 1012.4 |
| 20260506231137 | 72 | 317 | 12.0 | 18.0 | 0.00 | 0.00 | 0.00 | 39 | 1012.5 |
| 20260506230154 | 73 | 304 | 11.0 | 22.0 | 0.00 | 0.00 | 0.00 | 42 | 1012.5 |
| 20260506225201 | 73 | 332 | 14.0 | 22.0 | 0.00 | 0.00 | 0.00 | 43 | 1012.5 |
| 20260506224213 | 74 | 299 | 14.0 | 22.0 | 0.00 | 0.00 | 0.00 | 41 | 1012.4 |
| 20260506223153 | 73 | 309 | 16.0 | 22.0 | 0.00 | 0.00 | 0.00 | 41 | 1012.6 |
| 20260506222207 | 73 | 325 | 15.0 | 24.0 | 0.00 | 0.00 | 0.00 | 38 | 1012.7 |
| 20260506220041 | 75 | 304 | 14.0 | 23.0 | 0.00 | 0.00 | 0.00 | 38 | 1012.5 |
| 20260506215041 | 75 | 288 | 16.0 | 24.0 | 0.00 | 0.00 | 0.00 | 38 | 1012.3 |
| 20260506214059 | 74 | 289 | 16.0 | 24.0 | 0.00 | 0.00 | 0.00 | 42 | 1012.4 |
| 20260506213025 | 74 | 295 | 15.0 | 23.0 | 0.00 | 0.00 | 0.00 | 39 | 1012.4 |
| 20260506212013 | 74 | 291 | 13.0 | 18.0 | 0.00 | 0.00 | 0.00 | 39 | 1012.4 |
| 20260506210947 | 74 | 294 | 11.0 | 17.0 | 0.00 | 0.00 | 0.00 | 43 | 1012.6 |
| 20260506204823 | 73 | 288 | 9.0 | 18.0 | 0.00 | 0.00 | 0.00 | 49 | 1012.6 |
| 20260506203804 | 72 | 297 | 12.0 | 18.0 | 0.00 | 0.00 | 0.00 | 47 | 1012.7 |
| 20260506202759 | 72 | 268 | 12.0 | 17.0 | 0.00 | 0.00 | 0.00 | 51 | 1012.7 |
| 20260506200641 | 72 | 275 | 12.0 | 19.0 | 0.00 | 0.00 | 0.00 | 51 | 1012.6 |
| 20260506195629 | 71 | 292 | 13.0 | 19.0 | 0.00 | 0.00 | 0.00 | 54 | 1012.4 |